www.pogodaiklimat.ru

Погода и климат >> Архив погоды >> Австралия >> Западная Австралия >> Уорбертон


ПОГОДА в Уорбертоне

  • Прогноз погоды в Уорбертоне
  • Монитор погоды в Уорбертоне

АРХИВ ПОГОДЫ в Уорбертоне

Время (UTC), дата Ветер
(напр.,м/с)
 
Видим.   Явления Облачность Т
(С)
Тd
(С)
f
(%)
Тe
(С)
Тes
(С)
Комфортность P
(гПа)
Po
(гПа)
Тmin
(С)
Tmax
(С)
R
(мм)
R24
(мм)
S
(см)
16 12.06 Ю 1 н/о н/о +5.7 -2.6 55 +5 +5 1022.9 968.9
18 12.06 Ю 1 н/о н/о +4.4 -4.1 54 +4 +4 1022.4 968.4
19 12.06 Ю 3 н/о н/о +6.6 -1.1 58 +4 +4 1022.3 968.3
21 12.06 штиль 0 н/о н/о +2.1 -4.6 61 +2 +2 1022.3 968.3
22 12.06 штиль 0 н/о н/о +1.2 -5.3 62 +1 +1 1022.9 968.9
00 13.06 ЮВ 2 н/о н/о +12.1 -0.4 42 +12 +12 1023.9 969.8
01 13.06 ЮВ 5 н/о н/о +15.1 -0.6 34 +14 +14 1024.2 970.1 +1.2
03 13.06 ЮВ 4 н/о н/о +16.4 -0.3 32 +16 +16 1023.0 969.0
04 13.06 ЮВ 3 н/о н/о +18.0 -1.3 27 +18 +18 1022.0 968.0
06 13.06 ЮВ 4 н/о н/о +19.5 -2.8 22 +19 +19 1020.6 966.7
07 13.06 ЮВ 3 н/о н/о +18.8 -3.3 22 +19 +19 1020.5 966.6
09 13.06 ЮВ 3 н/о н/о +16.5 -4.7 23 +17 +17 1021.2 967.3
10 13.06 ЮВ 2 н/о н/о +12.8 -6.2 26 +12 +12 1021.9 967.9
12 13.06 Ю 2 н/о н/о +9.7 -5.4 34 +9 +9 1022.7 968.7
13 13.06 ЮВ 3 н/о н/о +9.1 -5.9 34 +7 +7 1022.4 968.4 +19.8
15 13.06 штиль 0 н/о н/о +6.6 -5.7 41 +6 +6 1023.0 969.0
16 13.06 ЮВ 3 н/о н/о +7.4 -5.0 41 +6 +6 1022.5 968.5
18 13.06 ЮВ 3 н/о н/о +7.2 -2.8 49 +5 +5 1022.6 968.6
19 13.06 ЮВ 4 н/о н/о +7.1 -1.1 56 +4 +4 1022.4 968.4
21 13.06 ЮВ 4 н/о н/о +6.8 0.0 62 +4 +4 1022.1 968.1
22 13.06 ЮВ 3 н/о н/о +6.4 +0.1 64 +4 +4 1022.6 968.6
00 14.06 ЮВ 6 н/о н/о +11.6 +1.3 49 +9 +9 1023.4 969.4
01 14.06 ЮВ 7 н/о н/о +14.4 +1.3 41 +13 +13 1023.6 969.6 +6.0
03 14.06 ЮВ 6 н/о н/о +17.7 -0.1 30 +17 +17 1022.4 968.4
04 14.06 ЮВ 5 н/о н/о +18.5 -0.3 28 +18 +18 1021.3 967.4
06 14.06 ЮВ 4 н/о н/о +20.3 -0.3 25 +20 +20 1019.4 965.6
07 14.06 ЮВ 4 н/о н/о +20.0 -0.6 25 +20 +20 1019.0 965.2
09 14.06 ЮВ 3 н/о н/о +17.9 -0.8 28 +18 +18 1019.6 965.8
10 14.06 Ю 3 н/о н/о +15.0 -1.5 32 +15 +15 1020.5 966.6
12 14.06 ЮВ 2 н/о н/о +11.0 -2.4 39 +10 +10 1021.4 967.5
13 14.06 ЮВ 3 н/о н/о +8.9 -3.6 41 +7 +7 1021.4 967.5 +20.6
15 14.06 ЮВ 3 н/о н/о +8.3 -2.3 47 +7 +7 1020.6 966.7
16 14.06 ЮВ 3 н/о н/о +10.0 -1.7 44 +8 +8 1020.3 966.4
18 14.06 штиль 0 н/о н/о +5.6 -3.2 53 +5 +5 1020.1 966.2
19 14.06 Ю 3 н/о н/о +5.2 -2.6 57 +3 +3 1020.0 966.1
21 14.06 Ю 3 н/о н/о +4.7 -2.2 61 +2 +2 1020.7 966.8
22 14.06 Ю 1 н/о н/о +3.5 -3.1 62 +4 +4 1021.0 967.1
00 15.06 Ю 3 н/о н/о +8.7 -1.1 50 +7 +7 1022.8 968.8
01 15.06 Ю 3 н/о н/о +13.7 -0.3 38 +13 +13 1023.3 969.3 +3.3
03 15.06 Ю 6 н/о н/о +18.6 +0.2 29 +18 +18 1022.1 968.1
04 15.06 Ю 5 н/о н/о +19.2 +0.3 28 +19 +19 1020.9 967.0
06 15.06 Ю 5 н/о н/о +19.9 -0.7 25 +20 +20 1020.2 966.3
07 15.06 Ю 5 н/о н/о +19.6 -0.4 26 +20 +20 1020.1 966.2
09 15.06 Ю 4 н/о н/о +17.6 -1.1 28 +17 +17 1021.3 967.4
10 15.06 Ю 4 н/о н/о +15.7 -1.8 30 +15 +15 1022.2 968.2
12 15.06 Ю 4 н/о н/о +13.2 -1.9 35 +12 +12 1023.3 969.3
13 15.06 Ю 2 н/о н/о +11.6 -1.9 39 +11 +11 1023.9 969.8 +20.6
15 15.06 ЮВ 2 н/о н/о +8.6 -2.3 46 +7 +7 1024.5 970.4
16 15.06 ЮВ 3 н/о н/о +8.3 -2.0 48 +6 +6 1024.3 970.2
18 15.06 ЮВ 3 н/о н/о +7.0 -2.2 52 +5 +5 1023.3 969.3
19 15.06 ЮВ 3 н/о н/о +6.2 -1.7 57 +4 +4 1023.1 969.1
21 15.06 ЮВ 3 н/о н/о +6.2 -1.7 57 +4 +4 1023.1 969.1
22 15.06 ЮВ 3 н/о н/о +6.5 -1.2 58 +4 +4 1023.6 969.6
00 16.06 ЮВ 4 н/о н/о +12.8 -0.1 41 +12 +12 1025.2 971.1
01 16.06 ЮВ 6 н/о н/о +15.4 +0.4 36 +14 +14 1025.7 971.5 +5.6
03 16.06 В 7 н/о н/о +17.9 +0.1 30 +17 +17 1024.4 970.3
04 16.06 ЮВ 5 н/о н/о +18.8 -0.1 28 +19 +19 1023.4 969.4
06 16.06 ЮВ 5 н/о н/о +20.3 -1.5 23 +20 +20 1022.0 968.0
07 16.06 ЮВ 5 н/о н/о +20.3 -1.5 23 +20 +20 1021.7 967.8
09 16.06 ЮВ 3 н/о н/о +17.6 -2.1 26 +18 +18 1022.2 968.2
10 16.06 ЮВ 3 н/о н/о +14.2 -2.7 31 +14 +14 1022.6 968.6
12 16.06 ЮВ 3 н/о н/о +10.5 -3.6 37 +9 +9 1023.6 969.6
13 16.06 ЮВ 2 н/о н/о +9.5 -4.1 38 +8 +8 1024.1 970.0 +21.0
15 16.06 Ю 2 н/о н/о +7.9 -3.9 43 +7 +7 1024.1 970.0
16 16.06 ЮВ 3 н/о н/о +6.1 -4.6 46 +4 +4 1023.4 969.4
18 16.06 ЮВ 4 н/о н/о +10.1 -1.9 43 +8 +8 1022.5 968.5
19 16.06 ЮВ 2 н/о н/о +8.8 -1.3 49 +7 +7 1023.1 969.1
21 16.06 ЮВ 5 н/о н/о +8.1 +0.1 57 +5 +5 1023.3 969.3
22 16.06 ЮВ 3 н/о н/о +6.6 +0.1 63 +4 +4 1024.4 970.3
00 17.06 ЮВ 3 н/о н/о +10.8 +1.9 54 +9 +9 1025.0 970.9
01 17.06 ЮВ 3 н/о н/о +13.2 +1.8 46 +12 +12 1025.8 971.6 +5.9
03 17.06 ЮВ 6 н/о н/о +18.9 0.0 28 +19 +19 1024.9 970.8
04 17.06 ЮВ 4 н/о н/о +19.7 -0.3 26 +20 +20 1023.8 969.7
06 17.06 ЮВ 5 н/о н/о +19.9 -0.1 26 +20 +20 1022.5 968.5
07 17.06 ЮВ 5 н/о н/о +20.1 +1.0 28 +20 +20 1022.6 968.6
09 17.06 ЮВ 5 н/о н/о +17.9 +0.1 30 +18 +18 1023.0 969.0
10 17.06 ЮВ 5 н/о н/о +16.1 +1.8 38 +15 +15 1023.9 969.8
12 17.06 ЮВ 4 н/о н/о +14.0 +1.6 43 +13 +13 1024.6 970.5
13 17.06 ЮВ 4 н/о н/о +12.9 +1.3 45 +12 +12 1024.7 970.6 +21.0
15 17.06 ЮВ 5 н/о н/о +12.0 +1.9 50 +10 +10 1025.0 970.9
16 17.06 ЮВ 6 н/о н/о +11.3 +2.1 53 +9 +9 1024.5 970.4
18 17.06 ЮВ 5 н/о н/о +10.0 +2.1 58 +7 +7 1024.4 970.3
19 17.06 ЮВ 5 н/о н/о +9.1 +1.8 60 +6 +6 1024.9 970.8
21 17.06 ЮВ 6 н/о н/о +8.0 +3.8 75 +4 +4 1025.1 971.0
22 17.06 ЮВ 6 н/о н/о +7.5 +5.0 84 +3 +3 1025.4 971.3
00 18.06 ЮВ 7 н/о н/о +10.0 +6.7 80 +6 +6 1026.4 972.2
01 18.06 В 7 н/о н/о +11.6 +6.1 69 +9 +9 1026.6 972.4 +7.6
03 18.06 ЮВ 6 н/о н/о +15.5 +4.8 49 +14 +14 1025.2 971.1
04 18.06 В 6 н/о н/о +17.2 +3.8 41 +16 +16 1024.0 969.9
06 18.06 В 5 н/о н/о +18.3 +3.8 38 +18 +18 1022.2 968.2
07 18.06 В 5 н/о н/о +19.2 +3.4 35 +19 +19 1022.1 968.1
09 18.06 В 5 н/о н/о +17.5 +2.7 37 +17 +17 1022.0 968.0
10 18.06 ЮВ 4 н/о н/о +15.6 +2.1 40 +15 +15 1022.5 968.5
12 18.06 ЮВ 4 н/о н/о +13.6 +2.8 48 +12 +12 1023.0 969.0
13 18.06 ЮВ 4 н/о н/о +12.9 +3.0 51 +11 +11 1022.9 968.9 +19.6
15 18.06 ЮВ 4 н/о н/о +11.8 +3.1 55 +10 +10 1022.8 968.8
16 18.06 ЮВ 4 н/о н/о +10.9 +3.0 58 +9 +9 1022.5 968.5
18 18.06 ЮВ 4 н/о н/о +10.1 +2.9 61 +8 +8 1022.0 968.0
19 18.06 В 5 н/о н/о +10.2 +3.0 61 +8 +8 1021.7 967.8
21 18.06 ЮВ 5 н/о н/о +8.3 +2.5 67 +5 +5 1022.1 968.1
22 18.06 ЮВ 4 н/о н/о +7.9 +2.4 68 +5 +5 1022.7 968.7
00 19.06 В 4 н/о н/о +12.1 +2.6 52 +11 +11 1023.8 969.7
01 19.06 В 4 н/о н/о +13.7 +2.3 46 +12 +12 1024.2 970.1 +7.8
03 19.06 СВ 5 н/о н/о +18.9 +1.9 32 +19 +19 1023.0 969.0
04 19.06 В 4 н/о н/о +20.2 +2.1 30 +21 +21 комфорт 1021.9 967.9
06 19.06 В 4 н/о н/о +22.1 +2.2 27 +22 +22 комфорт 1020.3 966.4
07 19.06 В 3 н/о н/о +22.0 +2.2 27 +22 +22 комфорт 1020.2 966.3
09 19.06 В 4 н/о н/о +20.5 +2.3 30 +21 +21 комфорт 1020.7 966.8
10 19.06 В 3 н/о н/о +18.9 +1.4 31 +19 +19 1021.0 967.1
12 19.06 В 5 н/о н/о +16.5 +1.4 36 +16 +16 1021.7 967.8
13 19.06 В 6 н/о н/о +16.3 +1.6 37 +15 +15 1021.9 967.9 +22.7
15 19.06 В 5 н/о н/о +14.2 +1.2 41 +13 +13 1022.2 968.2
16 19.06 В 5 н/о н/о +13.8 +1.1 42 +12 +12 1022.5 968.5

 

Местоположение метеостанции Уорбертон (Западная Австралия, Австралия): широта -26.13 долгота 126.58 высота над уровнем моря 460 м.

В архиве по умолчанию представлена погода в Уорбертоне за последнюю неделю. Архивные данные за месяц целиком и за предыдущие месяцы, начиная с января 2011 года, Вы можете получить, выбрав интересующий диапазон дат из раскрывающегося списка и нажав кнопку "Ввод!".


*Определитесь, кто Вы:
робот инопланетянин человек

Внимание! Время в таблицах - всемирное. Для получения местного времени необходимо прибавить поправку, которая равна 8 ч.

Смотрите также архив погоды в соседних городах и на ближайших метеорологических станциях:

Погода в Джайлсе (Западная Австралия, Австралия) (212 км)
Погода в Кинторе (Северная территория, Австралия) (425 км)
Погода в Юларе (Северная территория, Австралия) (453 км)
Погода в Лавертоне (Западная Австралия, Австралия) (496 км)
Погода в Форресте (Западная Австралия, Австралия) (544 км)
Погода в Эрнабелле (Южная Австралия, Австралия) (559 км)
Погода в Леонора аэропорту (Западная Австралия, Австралия) (602 км)
Погода в Леинстере (Западная Австралия, Австралия) (613 км)
Погода в Евкле (Западная Австралия, Австралия) (657 км)
Погода в Телфере (Западная Австралия, Австралия) (663 км)

Пояснения к столбцам:

Ветер - указаны скорость ветра в м/с - средняя за 10 мин, порывы в срок и между сроками (в фигурных скобках) и направление, откуда дует ветер: С - северный, СВ - северо-восточный, В - восточный, ЮВ - юго-восточный, Ю - южный, ЮЗ - юго-западный, З - западный, СЗ - северо-западный.
Видимость - горизонтальная дальность видимости в метрах или километрах. При видимости от 1 до 10 км при отсутствии осадков обычно наблюдается дымка, при ухудшении видимости до 1 км и менее - туман. В сухую погоду видимость может ухудшаться дымом, пылью или мглою.
Явления - указаны атмосферные явления, наблюдавшиеся в срок или в последний час перед сроком; фигурными скобками обозначены явления, наблюдавшиеся между сроками (за 1-3 часа до срока); квадратными скобками обозначены град или гололедные отложения с указанием их диаметра в мм.
Облачность - указаны через наклонную черту общая и нижняя облачность в баллах и высота нижней границы облаков в метрах; квадратными скобками обозначены формы облаков: Ci - перистые, Cs - перисто-слоистые, Cc - перисто-кучевые, Ac - высококучевые, As - высокослоистые, Sc - слоисто-кучевые, Ns - слоисто-дождевые, Cu - кучевые, Cb - кучево-дождевые. Подробнее классификацию облаков см. в Атласе облаков (PDF).
T - Температура воздуха - температура, измеренная на высоте 2 м над землей.
Td - Температура точки росы - температура, при понижении до которой содержащийся в воздухе водяной пар достигнет насыщения.
f - Относительная влажность воздуха - влажноcть воздуха, измеренная на высоте 2 м над землей.
Te - Эффективная температура - температура, которую ощущает одетый по сезону человек в тени. Характеристика душности погоды. При расчете учитывается влияние влажности воздуха и скорости ветра на теплоощущения человека.
Tes - Эффективная температура на солнце - температура, которую ощущает человек, с поправкой на солнечный нагрев. Характеристика знойности погоды. Зависит от высоты солнца над горизонтом, облачности и скорости ветра. Ночью, в пасмурную погоду, а также при ветре 12 м/с и более поправка равна нулю.
P - Атмосферное давление - приведенное к уровню моря атмосферное давление.
Po - Атмосферное давление - измеренное на уровне метеостанции атмосферное давление.
Tmin - Минимальная температура - минимум температуры воздуха на высоте 2 м над землей.
Tmax - Максимальная температура - максимум температуры воздуха на высоте 2 м над землей.
R - Количество осадков - Количество выпавших осадков за период времени, мм. При наведении курсора мыши на число - период времени, за который выпало указанное количество осадков.
R24 - Количество осадков - Количество выпавших осадков за 24 часа, мм.
S - Снежный покров - Высота снежного покрова, см. При наведении курсора мыши на число - состояние снежного покрова и степень покрытия местности в баллах.